TimeCST,TemperatureF,Dew PointF,Humidity,Sea Level PressureIn,VisibilityMPH,Wind Direction,Wind SpeedMPH,Gust SpeedMPH,PrecipitationIn,Events,Conditions,WindDirDegrees,DateUTC
12:53 AM,14.0,7.0,74,30.23,10.0,South,8.1,-,N/A,,Overcast,190,2014-02-08 06:53:00
1:26 AM,14.0,8.1,77,30.17,10.0,South,3.5,-,N/A,,Overcast,180,2014-02-08 07:26:00
1:53 AM,14.0,8.1,77,30.21,10.0,South,8.1,-,N/A,,Overcast,170,2014-02-08 07:53:00
2:03 AM,14.0,8.1,77,30.14,10.0,South,8.1,-,N/A,,Overcast,170,2014-02-08 08:03:00
2:53 AM,14.0,9.0,80,30.20,10.0,South,6.9,-,N/A,,Overcast,180,2014-02-08 08:53:00
3:53 AM,14.0,10.0,84,30.18,10.0,South,6.9,-,N/A,,Overcast,190,2014-02-08 09:53:00
4:53 AM,14.0,10.9,88,30.17,7.0,South,6.9,-,0.00,Snow,Light Snow,190,2014-02-08 10:53:00
5:53 AM,15.1,10.9,84,30.18,10.0,South,6.9,-,0.00,,Overcast,190,2014-02-08 11:53:00
6:53 AM,16.0,10.9,81,30.10,10.0,SSE,12.7,-,N/A,,Overcast,160,2014-02-08 12:53:00
7:53 AM,17.1,12.9,84,30.14,10.0,South,6.9,-,N/A,,Overcast,190,2014-02-08 13:53:00
8:53 AM,18.0,12.9,81,30.15,10.0,SSW,9.2,-,N/A,,Overcast,200,2014-02-08 14:53:00
9:33 AM,19.0,14.0,81,30.10,9.0,South,9.2,-,N/A,,Overcast,190,2014-02-08 15:33:00
9:53 AM,19.0,15.1,85,30.15,9.0,SSW,11.5,-,N/A,,Overcast,200,2014-02-08 15:53:00
10:53 AM,19.9,16.0,85,30.14,8.0,SSW,9.2,-,N/A,,Overcast,200,2014-02-08 16:53:00
11:53 AM,24.1,19.0,81,30.13,8.0,WSW,11.5,-,N/A,,Overcast,240,2014-02-08 17:53:00
12:53 PM,25.0,19.0,78,30.10,8.0,WSW,12.7,-,N/A,,Overcast,250,2014-02-08 18:53:00
1:22 PM,25.0,19.0,78,30.05,8.0,WSW,12.7,-,N/A,,Overcast,240,2014-02-08 19:22:00
1:53 PM,25.0,19.0,78,30.06,8.0,SW,10.4,-,N/A,,Overcast,230,2014-02-08 19:53:00
2:53 PM,26.1,19.9,78,30.09,8.0,West,10.4,-,N/A,,Overcast,270,2014-02-08 20:53:00
3:53 PM,26.1,19.0,75,30.11,8.0,West,8.1,-,N/A,,Overcast,270,2014-02-08 21:53:00
4:53 PM,26.1,19.0,75,30.10,8.0,West,4.6,-,N/A,,Overcast,270,2014-02-08 22:53:00
5:53 PM,25.0,19.9,81,30.13,7.0,West,5.8,-,N/A,,Overcast,280,2014-02-08 23:53:00
6:53 PM,25.0,19.0,78,30.16,8.0,Calm,Calm,-,N/A,,Overcast,0,2014-02-09 00:53:00
7:06 PM,25.0,19.0,78,30.12,8.0,Calm,Calm,-,N/A,,Overcast,0,2014-02-09 01:06:00
7:37 PM,24.1,19.0,81,30.12,7.0,Calm,Calm,-,N/A,,Overcast,0,2014-02-09 01:37:00
7:53 PM,24.1,19.0,81,30.16,7.0,Calm,Calm,-,N/A,,Overcast,0,2014-02-09 01:53:00
8:12 PM,23.0,19.0,85,30.11,7.0,SE,3.5,-,N/A,,Mostly Cloudy,130,2014-02-09 02:12:00
8:50 PM,23.0,17.6,80,30.11,7.0,East,3.5,-,N/A,,Mostly Cloudy,100,2014-02-09 02:50:00
8:53 PM,21.9,18.0,85,30.16,7.0,Calm,Calm,-,N/A,,Mostly Cloudy,0,2014-02-09 02:53:00
9:53 PM,21.0,18.0,88,30.18,6.0,SW,3.5,-,N/A,,Partly Cloudy,230,2014-02-09 03:53:00
10:53 PM,19.0,16.0,88,30.21,5.0,WNW,6.9,-,N/A,,Mostly Cloudy,300,2014-02-09 04:53:00
11:53 PM,21.9,17.1,82,30.23,6.0,NW,6.9,-,N/A,,Haze,320,2014-02-09 05:53:00